When you browse on this site, cookies collect data to enhance your experience and personalize the content and advertising you see.
Visit our Privacy Policy to learn more. By continuing to use the site, you agree to this use of cookies and data.
  • în România
  • Lista ţărilor
  • Pe 7 zile
  • Temperatura apei
  • Meteo pe hartă
  • Widget-uri
  • user-avatar
    Intrare

    Meteo pe oră la San Fernando de Apure

    Astăzi, 29 Mai, Vineri

    Timp Temperatura Precipitaţii Vânt Presiune Umiditate
    00:00 +23°C° 0 mm 0 m/s 755 mmHg 93%
    01:00 +23°C° 0 mm 0 m/s 754 mmHg 93%
    02:00 +23°C° 0 mm 0 m/s 754 mmHg 93%
    03:00 +23°C° 0 mm 0 m/s 754 mmHg 94%
    04:00 +24°C° 0 mm 1 m/s 754 mmHg 94%
    05:00 +24°C° 0 mm 1 m/s 754 mmHg 95%
    06:00 +25°C° 0 mm 1 m/s 754 mmHg 93%
    07:00 +26°C° 0 mm 1 m/s 755 mmHg 90%
    08:00 +27°C° 0 mm 1 m/s 755 mmHg 88%
    09:00 +29°C° 0 mm 2 m/s 755 mmHg 80%
    10:00 +30°C° 0 mm 2 m/s 756 mmHg 72%
    11:00 +33°C° 0 mm 3 m/s 756 mmHg 64%
    12:00 +34°C° 0.2 mm 3 m/s 755 mmHg 63%
    13:00 +34°C° 0.2 mm 3 m/s 754 mmHg 62%
    14:00 +34°C° 0.2 mm 3 m/s 753 mmHg 61%
    15:00 +34°C° 0.4 mm 2 m/s 753 mmHg 64%
    16:00 +34°C° 0.4 mm 2 m/s 752 mmHg 67%
    17:00 +32°C° 0.4 mm 1 m/s 752 mmHg 70%
    18:00 +31°C° 0.2 mm 1 m/s 752 mmHg 74%
    19:00 +29°C° 0.2 mm 1 m/s 753 mmHg 79%
    20:00 +26°C° 0.2 mm 0 m/s 753 mmHg 84%
    21:00 +25°C° 0 mm 0 m/s 754 mmHg 84%
    22:00 +25°C° 0 mm 0 m/s 754 mmHg 84%
    23:00 +25°C° 0 mm 0 m/s 754 mmHg 84%

    Mâine, 30 Mai, Sâmbătă

    Timp Temperatura Precipitaţii Vânt Presiune Umiditate
    00:00 +26°C° 0 mm 1 m/s 754 mmHg 85%
    01:00 +26°C° 0 mm 1 m/s 754 mmHg 85%
    02:00 +26°C° 0 mm 1 m/s 753 mmHg 85%
    03:00 +26°C° 0 mm 1 m/s 753 mmHg 85%
    04:00 +26°C° 0 mm 1 m/s 753 mmHg 85%
    05:00 +25°C° 0 mm 2 m/s 753 mmHg 85%
    06:00 +26°C° 0 mm 2 m/s 754 mmHg 84%
    07:00 +27°C° 0 mm 2 m/s 755 mmHg 83%
    08:00 +27°C° 0 mm 2 m/s 755 mmHg 81%
    09:00 +29°C° 0 mm 3 m/s 755 mmHg 75%
    10:00 +31°C° 0 mm 3 m/s 755 mmHg 69%
    11:00 +33°C° 0 mm 3 m/s 755 mmHg 63%
    12:00 +34°C° 0.7 mm 3 m/s 754 mmHg 64%
    13:00 +34°C° 0.7 mm 2 m/s 754 mmHg 65%
    14:00 +34°C° 0.7 mm 2 m/s 753 mmHg 66%
    15:00 +33°C° 1.3 mm 1 m/s 752 mmHg 69%
    16:00 +32°C° 1.3 mm 1 m/s 752 mmHg 72%
    17:00 +30°C° 1.3 mm 0 m/s 751 mmHg 75%
    18:00 +29°C° 0.1 mm 0 m/s 752 mmHg 79%
    19:00 +29°C° 0.1 mm 1 m/s 752 mmHg 84%
    20:00 +28°C° 0.1 mm 1 m/s 753 mmHg 88%
    21:00 +27°C° 0 mm 1 m/s 753 mmHg 89%
    22:00 +27°C° 0 mm 1 m/s 754 mmHg 89%
    23:00 +27°C° 0 mm 1 m/s 754 mmHg 90%

    Poimâine, 31 Mai, Duminică

    Timp Temperatura Precipitaţii Vânt Presiune Umiditate
    00:00 +27°C° 0.4 mm 1 m/s 754 mmHg 91%
    01:00 +24°C° 0.4 mm 0 m/s 753 mmHg 92%
    02:00 +24°C° 0.4 mm 0 m/s 753 mmHg 94%
    03:00 +26°C° 1.4 mm 1 m/s 753 mmHg 95%
    04:00 +26°C° 1.4 mm 1 m/s 753 mmHg 96%
    05:00 +25°C° 1.4 mm 1 m/s 754 mmHg 97%
    06:00 +26°C° 0.8 mm 1 m/s 754 mmHg 95%
    07:00 +27°C° 0.8 mm 1 m/s 755 mmHg 93%
    08:00 +27°C° 0.8 mm 2 m/s 755 mmHg 91%
    09:00 +28°C° 0.8 mm 2 m/s 755 mmHg 88%
    10:00 +29°C° 0.8 mm 3 m/s 755 mmHg 85%
    11:00 +29°C° 0.8 mm 3 m/s 755 mmHg 82%
    12:00 +30°C° 0.6 mm 3 m/s 755 mmHg 79%
    13:00 +31°C° 0.6 mm 3 m/s 754 mmHg 77%
    14:00 +31°C° 0.6 mm 2 m/s 754 mmHg 74%
    15:00 +31°C° 1.1 mm 2 m/s 753 mmHg 77%
    16:00 +30°C° 1.1 mm 1 m/s 753 mmHg 80%
    17:00 +30°C° 1.1 mm 1 m/s 752 mmHg 83%
    18:00 +29°C° 1.2 mm 1 m/s 753 mmHg 87%
    19:00 +28°C° 1.2 mm 1 m/s 753 mmHg 90%
    20:00 +27°C° 1.2 mm 1 m/s 754 mmHg 93%
    21:00 +27°C° 0.6 mm 1 m/s 754 mmHg 93%
    22:00 +26°C° 0.6 mm 1 m/s 755 mmHg 94%
    23:00 +26°C° 0.6 mm 1 m/s 755 mmHg 95%

    1 Iunie, Luni

    Timp Temperatura Precipitaţii Vânt Presiune Umiditate
    00:00 +26°C° 2.3 mm 1 m/s 755 mmHg 96%
    01:00 +26°C° 2.3 mm 1 m/s 754 mmHg 96%
    02:00 +26°C° 2.3 mm 2 m/s 754 mmHg 97%
    03:00 +25°C° 0.9 mm 1 m/s 754 mmHg 96%
    04:00 +25°C° 0.9 mm 1 m/s 754 mmHg 95%
    05:00 +25°C° 0.9 mm 1 m/s 754 mmHg 95%
    06:00 +25°C° 0.7 mm 1 m/s 755 mmHg 95%
    07:00 +25°C° 0.7 mm 2 m/s 755 mmHg 95%
    08:00 +25°C° 0.7 mm 2 m/s 756 mmHg 95%
    09:00 +27°C° 0 mm 2 m/s 756 mmHg 88%
    10:00 +29°C° 0 mm 2 m/s 756 mmHg 81%
    11:00 +30°C° 0 mm 2 m/s 756 mmHg 74%
    12:00 +31°C° 0.1 mm 2 m/s 755 mmHg 71%
    13:00 +32°C° 0.1 mm 2 m/s 755 mmHg 67%
    14:00 +34°C° 0.1 mm 2 m/s 754 mmHg 64%
    15:00 +32°C° 0 mm 2 m/s 753 mmHg 66%
    16:00 +32°C° 0 mm 2 m/s 753 mmHg 68%
    17:00 +32°C° 0 mm 2 m/s 752 mmHg 70%
    18:00 +31°C° 0 mm 1 m/s 752 mmHg 74%
    19:00 +29°C° 0 mm 1 m/s 753 mmHg 78%
    20:00 +28°C° 0 mm 1 m/s 753 mmHg 81%
    21:00 +27°C° 0 mm 1 m/s 754 mmHg 83%
    22:00 +27°C° 0 mm 1 m/s 754 mmHg 84%
    23:00 +25°C° 0 mm 0 m/s 755 mmHg 86%

    2 Iunie, Marţi

    Timp Temperatura Precipitaţii Vânt Presiune Umiditate
    00:00 +24°C° 0 mm 0 m/s 754 mmHg 86%
    01:00 +26°C° 0 mm 1 m/s 754 mmHg 86%
    02:00 +26°C° 0 mm 1 m/s 754 mmHg 87%
    03:00 +26°C° 0 mm 1 m/s 754 mmHg 87%
    04:00 +26°C° 0 mm 1 m/s 754 mmHg 88%
    05:00 +25°C° 0 mm 1 m/s 754 mmHg 88%
    06:00 +26°C° 0 mm 1 m/s 754 mmHg 86%
    07:00 +27°C° 0 mm 2 m/s 755 mmHg 83%
    08:00 +27°C° 0 mm 2 m/s 755 mmHg 80%
    09:00 +29°C° 0 mm 3 m/s 755 mmHg 75%
    10:00 +30°C° 0 mm 3 m/s 756 mmHg 70%
    11:00 +31°C° 0 mm 3 m/s 756 mmHg 65%
    12:00 +33°C° 0 mm 3 m/s 755 mmHg 62%
    13:00 +34°C° 0 mm 2 m/s 754 mmHg 60%
    14:00 +34°C° 0 mm 2 m/s 753 mmHg 58%
    15:00 +34°C° 0 mm 2 m/s 753 mmHg 59%
    16:00 +34°C° 0 mm 2 m/s 752 mmHg 61%
    17:00 +34°C° 0 mm 2 m/s 751 mmHg 62%
    18:00 +31°C° 0 mm 1 m/s 752 mmHg 66%
    19:00 +30°C° 0 mm 1 m/s 752 mmHg 69%
    20:00 +26°C° 0 mm 0 m/s 753 mmHg 73%
    21:00 +26°C° 0 mm 0 m/s 753 mmHg 74%
    22:00 +25°C° 0 mm 0 m/s 753 mmHg 75%
    23:00 +25°C° 0 mm 0 m/s 754 mmHg 76%

    3 Iunie, Miercuri

    Timp Temperatura Precipitaţii Vânt Presiune Umiditate
    00:00 +25°C° 0 mm 0 m/s 753 mmHg 76%
    01:00 +27°C° 0 mm 1 m/s 753 mmHg 77%
    02:00 +26°C° 0 mm 1 m/s 753 mmHg 77%
    03:00 +26°C° 0 mm 1 m/s 753 mmHg 79%
    04:00 +26°C° 0 mm 1 m/s 753 mmHg 80%
    05:00 +26°C° 0 mm 1 m/s 753 mmHg 81%
    06:00 +26°C° 0 mm 2 m/s 753 mmHg 80%
    07:00 +27°C° 0 mm 2 m/s 754 mmHg 79%
    08:00 +27°C° 0 mm 3 m/s 754 mmHg 78%
    09:00 +29°C° 0 mm 3 m/s 754 mmHg 73%
    10:00 +31°C° 0 mm 3 m/s 754 mmHg 68%
    11:00 +33°C° 0 mm 3 m/s 755 mmHg 63%
    12:00 +33°C° 0.9 mm 3 m/s 754 mmHg 64%
    13:00 +33°C° 0.9 mm 3 m/s 753 mmHg 66%
    14:00 +34°C° 0.9 mm 2 m/s 752 mmHg 68%
    15:00 +32°C° 1.3 mm 2 m/s 752 mmHg 72%
    16:00 +32°C° 1.3 mm 1 m/s 751 mmHg 75%
    17:00 +31°C° 1.3 mm 1 m/s 751 mmHg 79%
    18:00 +30°C° 0 mm 1 m/s 751 mmHg 81%
    19:00 +27°C° 0 mm 0 m/s 751 mmHg 83%
    20:00 +26°C° 0 mm 0 m/s 752 mmHg 85%
    21:00 +25°C° 0 mm 0 m/s 752 mmHg 86%
    22:00 +25°C° 0 mm 0 m/s 753 mmHg 87%
    23:00 +24°C° 0 mm 0 m/s 753 mmHg 88%
    Arată mai mult